Weather History for Statesboro, GA

Change the Weather History Date:

Thursday, April 11, 2013

  Actual Average (KSAV) Record (KSAV)
Temperature  
Mean Temperature 74 °F 64 °F  
Max Temperature 86 °F 77 °F 90 °F (2011)
Min Temperature 61 °F 53 °F 34 °F (1960)
Degree Days  
Heating Degree Days 0 3  
Month to date heating degree days 40  
Since 1 July heating degree days 1767  
Cooling Degree Days 8 3  
Month to date cooling degree days 24  
Year to date cooling degree days 66  
Growing Degree Days 24 (Base 50)    
Moisture  
Dew Point 68 °F    
Average Humidity 89    
Maximum Humidity 100    
Minimum Humidity 50    
Precipitation  
Precipitation 0.00 in 0.11 in 1.75 in (1926)
Month to date precipitation 1.20  
Year to date precipitation 11.41  
Sea Level Pressure  
Sea Level Pressure 29.92 in    
Wind  
Wind Speed 5 mph (South)    
Max Wind Speed 14 mph    
Max Gust Speed 20 mph    
Visibility 8 miles    
Events Fog , Rain , Thunderstorm    
T = Trace of Precipitation, MM = Missing Value Source: NWS Daily Summary

Daily Weather History Graph

Daily Weather History Graph

Search for Another Location

Airport:

Trip Planner

Search our weather history database for the weather conditions in past years. The results will help you decide how hot, cold, wet, or windy it might be!

Date:

Astronomy

Apr. 11, 2013 Rise Set
Actual Time 7:02 AM EDT 7:54 PM EDT
Civil Twilight 6:37 AM EDT 8:19 PM EDT
Nautical Twilight 6:07 AM EDT 8:48 PM EDT
Astronomical Twilight 5:37 AM EDT 9:19 PM EDT
Moon 7:37 AM EDT (4/11) 9:20 PM EDT (4/11)
Length of Visible Light 13h 42m
Length of Day
12h 51m
New Moon, 2% of the Moon is Illuminated
Apr 11
New Moon
Apr 18
First Quarter
Apr 25
Full
May 2
Last Quarter
May 9
New

Hourly Weather History & Observations

Time (EDT) Temp. Heat Index Dew Point Humidity Pressure Visibility Wind Dir Wind Speed Gust Speed Precip Events Conditions
12:15 AM 66.2 °F - 66.2 °F 100% 30.01 in 10.0 mi SSE 5.8 mph - N/A   Clear
12:35 AM 66.4 °F - 66.4 °F 100% 30.00 in 10.0 mi SSE 4.6 mph - N/A   Clear
12:55 AM 66.2 °F - 66.2 °F 100% 30.00 in 10.0 mi SSE 3.5 mph - N/A   Clear
1:15 AM 65.8 °F - 65.8 °F 100% 30.00 in 10.0 mi SSE 3.5 mph - N/A   Clear
1:35 AM 65.5 °F - 65.5 °F 100% 30.00 in 10.0 mi South 3.5 mph - N/A   Clear
1:55 AM 65.5 °F - 65.5 °F 100% 30.00 in 10.0 mi Calm Calm - N/A   Clear
2:15 AM 65.3 °F - 65.3 °F 100% 29.99 in 10.0 mi SSE 3.5 mph - N/A   Clear
2:35 AM 64.9 °F - 64.9 °F 100% 29.99 in 10.0 mi Calm Calm - N/A   Scattered Clouds
2:55 AM 65.3 °F - 65.3 °F 100% 29.98 in 10.0 mi Calm Calm - N/A   Mostly Cloudy
3:15 AM 64.9 °F - 64.9 °F 100% 29.98 in 10.0 mi Calm Calm - N/A   Mostly Cloudy
3:35 AM 64.4 °F - 64.4 °F 100% 29.97 in 10.0 mi Calm Calm - N/A   Scattered Clouds
3:55 AM 63.5 °F - 63.5 °F 100% 29.98 in 5.0 mi Calm Calm - N/A   Clear
4:15 AM 62.8 °F - 62.8 °F 100% 29.98 in 5.0 mi Calm Calm - N/A   Scattered Clouds
4:35 AM 61.7 °F - 61.7 °F 100% 29.97 in 2.5 mi Calm Calm - N/A   Clear
4:55 AM 61.7 °F - 61.7 °F 100% 29.97 in 4.0 mi Calm Calm - N/A   Scattered Clouds
5:15 AM 62.6 °F - 62.6 °F 100% 29.97 in 0.5 mi Calm Calm - N/A Fog Fog
5:35 AM 63.0 °F - 63.0 °F 100% 29.97 in 0.5 mi Calm Calm - N/A Fog Fog
5:55 AM 63.5 °F - 63.5 °F 100% 29.97 in 1.8 mi Calm Calm - N/A   Overcast
6:15 AM 64.0 °F - 64.0 °F 100% 29.98 in 7.0 mi SSE 3.5 mph - N/A   Overcast
6:35 AM 64.6 °F - 64.6 °F 100% 29.98 in 5.0 mi SSE 3.5 mph - N/A   Overcast
6:55 AM 65.7 °F - 65.7 °F 100% 29.99 in 7.0 mi South 4.6 mph - N/A   Overcast
7:15 AM 66.7 °F - 66.7 °F 100% 29.99 in 5.0 mi SSE 5.8 mph - N/A   Overcast
7:35 AM 67.3 °F - 67.3 °F 100% 29.99 in 7.0 mi South 5.8 mph - N/A   Overcast
7:55 AM 67.6 °F - 67.6 °F 100% 30.00 in 7.0 mi SSE 4.6 mph - N/A   Overcast
8:15 AM 68.2 °F - 68.2 °F 100% 30.00 in 5.0 mi South 4.6 mph - N/A   Overcast
8:35 AM 68.7 °F - 68.7 °F 100% 30.00 in 4.0 mi SSW 5.8 mph - N/A   Overcast
8:55 AM 69.1 °F - 69.1 °F 100% 30.00 in 3.0 mi South 5.8 mph - N/A   Overcast
9:15 AM 69.8 °F - 69.8 °F 100% 30.00 in 5.0 mi SSW 6.9 mph - N/A   Overcast
9:35 AM 70.5 °F - 70.5 °F 100% 30.00 in 7.0 mi SSW 5.8 mph - N/A   Overcast
9:55 AM 70.9 °F - 70.9 °F 100% 30.00 in 10.0 mi SSW 6.9 mph - N/A   Overcast
10:15 AM 71.6 °F - 71.6 °F 100% 30.00 in 10.0 mi SSW 6.9 mph - N/A   Overcast
10:35 AM 72.9 °F - 71.8 °F 96% 30.00 in 10.0 mi SSW 4.6 mph - N/A   Overcast
10:55 AM 74.1 °F - 72.1 °F 94% 30.00 in 10.0 mi SW 8.1 mph - N/A   Overcast
11:15 AM 75.2 °F - 72.0 °F 90% 29.99 in 10.0 mi South 8.1 mph - N/A   Overcast
11:35 AM 77.7 °F - 69.8 °F 76% 29.98 in 10.0 mi SSW 5.8 mph - N/A   Overcast
11:55 AM 79.3 °F - 68.7 °F 70% 29.97 in 10.0 mi SSW 9.2 mph - N/A   Overcast
12:15 PM 79.9 °F - 68.5 °F 68% 29.96 in 10.0 mi SW 8.1 mph - N/A   Overcast
12:35 PM 80.2 °F 83.0 °F 68.4 °F 67% 29.96 in 10.0 mi SSW 8.1 mph - N/A   Overcast
1:15 PM 82.2 °F 84.9 °F 67.6 °F 61% 29.94 in 10.0 mi South 10.4 mph 17.3 mph N/A   Mostly Cloudy
1:35 PM 83.3 °F 86.2 °F 67.6 °F 59% 29.93 in 10.0 mi SSW 11.5 mph - N/A   Scattered Clouds
1:55 PM 83.5 °F 86.2 °F 67.3 °F 58% 29.93 in 10.0 mi SSW 10.4 mph 16.1 mph N/A   Mostly Cloudy
2:15 PM 84.2 °F 86.8 °F 66.7 °F 56% 29.92 in 10.0 mi SSW 8.1 mph 16.1 mph N/A   Mostly Cloudy
2:35 PM 84.9 °F 87.6 °F 66.9 °F 55% 29.90 in 10.0 mi SSW 6.9 mph - N/A   Mostly Cloudy
2:55 PM 84.0 °F 86.3 °F 66.0 °F 55% 29.89 in 10.0 mi SSW 8.1 mph 19.6 mph N/A   Scattered Clouds
3:15 PM 85.8 °F 88.5 °F 66.7 °F 53% 29.88 in 10.0 mi SSW 11.5 mph 18.4 mph N/A   Scattered Clouds
3:35 PM 86.7 °F 89.0 °F 65.8 °F 50% 29.86 in 10.0 mi SSW 8.1 mph - N/A   Scattered Clouds
3:55 PM 86.2 °F 88.4 °F 66.2 °F 51% 29.84 in 10.0 mi SSW 8.1 mph - N/A   Scattered Clouds
4:15 PM 76.8 °F - 70.0 °F 79% 29.83 in 10.0 mi Calm Calm - N/A Rain Light Rain
4:35 PM 80.6 °F 84.1 °F 70.3 °F 71% 29.82 in 10.0 mi South 3.5 mph - N/A   Scattered Clouds
4:55 PM 82.6 °F 86.8 °F 70.5 °F 67% 29.81 in 10.0 mi South 6.9 mph - N/A   Mostly Cloudy
5:15 PM 83.3 °F 86.2 °F 67.5 °F 59% 29.81 in 10.0 mi South 5.8 mph - N/A   Mostly Cloudy
5:35 PM 82.2 °F 85.3 °F 68.4 °F 63% 29.81 in 10.0 mi SSE 6.9 mph - N/A Thunderstorm Mostly Cloudy
5:55 PM 79.2 °F - 68.4 °F 69% 29.81 in 10.0 mi SSE 12.7 mph - N/A Thunderstorm Mostly Cloudy
6:15 PM 75.6 °F - 67.1 °F 75% 29.82 in 10.0 mi SE 8.1 mph - N/A   Mostly Cloudy
6:35 PM 74.8 °F - 71.1 °F 88% 29.80 in 4.0 mi SE 8.1 mph - N/A Rain , Thunderstorm Heavy Thunderstorms and Rain
6:55 PM 74.3 °F - 74.3 °F 100% 29.80 in 5.0 mi SE 5.8 mph - N/A Rain , Thunderstorm Heavy Thunderstorms and Rain
7:15 PM 74.3 °F - 74.3 °F 100% 29.81 in 10.0 mi SSW 3.5 mph - N/A Thunderstorm Scattered Clouds
7:35 PM 74.7 °F - 74.7 °F 100% 29.82 in 10.0 mi Calm Calm - N/A   Scattered Clouds
7:55 PM 74.3 °F - 74.3 °F 100% 29.81 in 10.0 mi SE 4.6 mph - N/A   Scattered Clouds
8:15 PM 73.6 °F - 73.6 °F 100% 29.81 in 10.0 mi SE 3.5 mph - N/A   Clear
8:35 PM 73.4 °F - 73.4 °F 100% 29.82 in 10.0 mi SE 5.8 mph - N/A   Scattered Clouds
8:55 PM 72.9 °F - 72.7 °F 99% 29.80 in 10.0 mi SSE 9.2 mph - N/A   Scattered Clouds
9:15 PM 72.5 °F - 72.5 °F 100% 29.80 in 10.0 mi SSE 4.6 mph - N/A   Scattered Clouds
9:35 PM 72.3 °F - 71.8 °F 98% 29.80 in 10.0 mi SSE 9.2 mph - N/A   Scattered Clouds
9:55 PM 72.1 °F - 71.6 °F 98% 29.80 in 10.0 mi SSE 8.1 mph - N/A   Clear
10:15 PM 72.0 °F - 71.6 °F 99% 29.80 in 10.0 mi SSE 9.2 mph - N/A   Clear
10:35 PM 71.8 °F - 71.2 °F 98% 29.81 in 10.0 mi SSE 12.7 mph 17.3 mph N/A   Clear
10:55 PM 72.1 °F - 71.2 °F 97% 29.81 in 10.0 mi SSE 13.8 mph 19.6 mph N/A   Clear
11:15 PM 72.0 °F - 71.2 °F 98% 29.82 in 10.0 mi South 10.4 mph - N/A   Clear
11:35 PM 72.0 °F - 71.6 °F 99% 29.82 in 10.0 mi South 9.2 mph - N/A   Scattered Clouds
11:55 PM 72.0 °F - 71.6 °F 99% 29.82 in 10.0 mi South 10.4 mph - N/A   Mostly Cloudy